Project,Study,Ord_Occ,Event_Num,Cast_ID,Date_Time_UTC,Date_Time_PST,Lat_Dec,Lon_Dec,Sta_ID,Line,Sta,Depth,Pressure,PrQ,Temp1,Temp1Q,Temp2,Temp2Q,TempAve,Salt1,Salt1Q,Salt1_Corr,Salt2,Salt2Q,Salt2_Corr,SaltAve_Corr,Ox1,Ox1Q,Ox1_CruiseCorr,Ox1_StaCorr,Ox2,Ox2Q,Ox2_CruiseCorr,Ox2_StaCorr,OxAve_StaCorr,Ox1uM,Ox1uM_CruiseCorr,Ox1uM_StaCorr,Ox2uM,Ox2uM_CruiseCorr,Ox2uM_StaCorr,OxAveuM_StaCorr,FluorV,FluorQ,EstChl_CruiseCorr,EstChl_StaCorr,ISUSV,ISUSQ,EstNO3_CruiseCorr,EstNO3_StaCorr,SigThetaTS1,SigThetaTS1Q,SigThetaTS2,SigThetaTS2Q,BAT,XMiss,TransQ,pH,pHQ,SPAR,SPARQ,PAR,PARQ,PoT1,PoT2,DynHt,SVA,OxSat1,OxSat2,BTL_Depth,BTL_Temp,SaltB,OxB,OxBuM,Chl-a,Phaeo,NO3,NO2,NH4,PO4,SIL
CalCOFI,2101RL,061,,2101_061d,31-Jan-2021 05:54:24,30-Jan-2021 21:54:24,34.14915,-121.15166,080.0 060.0,080.0,060.0,4.000,4.029,,13.2389,,13.2409,,13.2399,33.4140,,33.4198,33.4117,,33.4137,33.4168,5.6845,,5.9493,5.9972,5.5679,,5.9117,5.9660,5.9816,247.650,259.5002,215.0731,242.571,275.8431,213.8687,214.4709,0.1586,,1.0514,1.0430, ,, , ,25.1169,,25.1147,,0.9246,79.3616,,,,3.6737E+00,,1.0000E-12,,13.2383,13.2404,0.0021,283.755,95.426,93.472,4,,33.4152,5.966,260.34,1.015,0.297,,,,,
CalCOFI,2101RL,061,,2101_061d,31-Jan-2021 05:54:28,30-Jan-2021 21:54:28,34.14916,-121.15168,080.0 060.0,080.0,060.0,5.000,5.036,,13.2375,,13.2349,,13.2362,33.4138,,33.4196,33.4114,,33.4134,33.4165,5.6837,,5.9485,5.9963,5.5927,,5.9380,5.9926,5.9945,247.615,259.4636,215.0456,243.650,275.8042,214.7298,214.8877,0.1543,,1.0162,1.0416, ,, , ,25.1170,,25.1157,,0.9241,79.3712,,,,3.6945E+00,,1.0000E-12,,13.2369,13.2342,0.0053,283.770,95.410,93.876,,,,,,,,,,,,
CalCOFI,2101RL,061,,2101_061d,31-Jan-2021 05:54:31,30-Jan-2021 21:54:31,34.14914,-121.15168,080.0 060.0,080.0,060.0,6.000,6.043,,13.2333,,13.2321,,13.2327,33.4137,,33.4195,33.4116,,33.4136,33.4166,5.6827,,5.9474,5.9953,5.6015,,5.9474,6.0020,5.9987,247.573,259.4196,215.0126,244.036,275.7575,215.0378,215.0252,0.1701,,1.1456,1.0354, ,, , ,25.1179,,25.1165,,0.9243,79.3676,,,,3.6947E+00,,1.0000E-12,,13.2325,13.2312,0.0082,283.717,95.386,94.019,,,,,,,,,,,,
CalCOFI,2101RL,061,,2101_061d,31-Jan-2021 05:54:34,30-Jan-2021 21:54:34,34.14914,-121.15169,080.0 060.0,080.0,060.0,7.000,7.051,,13.2228,,13.2218,,13.2223,33.4135,,33.4193,33.4114,,33.4134,33.4164,5.6779,,5.9424,5.9902,5.5843,,5.9291,5.9836,5.9869,247.361,259.1977,214.8461,243.283,275.5217,214.4369,214.6415,0.1542,,1.0153,1.0415, ,, , ,25.1198,,25.1184,,0.9239,79.3752,,,,3.6947E+00,,1.0000E-12,,13.2218,13.2209,0.0111,283.561,95.283,93.709,,,,,,,,,,,,
CalCOFI,2101RL,061,,2101_061d,31-Jan-2021 05:54:36,30-Jan-2021 21:54:36,34.14914,-121.15170,080.0 060.0,080.0,060.0,8.000,8.058,,13.1966,,13.2003,,13.1985,33.4125,,33.4183,33.4112,,33.4132,33.4158,5.6796,,5.9442,5.9920,5.5796,,5.9241,5.9785,5.9853,247.435,259.2752,214.9042,243.079,275.6040,214.2741,214.5892,0.1624,,1.0825,1.0423, ,, , ,25.1243,,25.1226,,0.9275,79.3049,,,,3.6947E+00,,1.0000E-12,,13.1955,13.1992,0.0139,283.158,95.261,93.590,,,,,,,,,,,,
CalCOFI,2101RL,061,,2101_061d,31-Jan-2021 05:54:38,30-Jan-2021 21:54:38,34.14914,-121.15170,080.0 060.0,080.0,060.0,9.000,9.065,,13.1770,,13.1831,,13.1801,33.4130,,33.4188,33.4107,,33.4127,33.4158,5.6665,,5.9305,5.9782,5.5857,,5.9306,5.9851,5.9817,246.862,258.6753,214.4541,243.341,274.9668,214.4832,214.4687,0.1716,,1.1579,1.0333, ,, , ,25.1287,,25.1257,,0.9335,79.1848,,,,3.6947E+00,,1.0000E-12,,13.1758,13.1818,0.0168,282.774,95.002,93.657,,,,,,,,,,,,
CalCOFI,2101RL,061,,2101_061d,31-Jan-2021 05:54:42,30-Jan-2021 21:54:42,34.14914,-121.15172,080.0 060.0,080.0,060.0,10.000,10.072,,13.1310,,13.1299,,13.1305,33.4116,,33.4174,33.4099,,33.4119,33.4147,5.6601,,5.9238,5.9715,5.5848,,5.9296,5.9841,5.9778,246.583,258.3833,214.2350,243.302,274.6566,214.4521,214.3436,0.1752,,1.1874,1.0269, ,, , ,25.1368,,25.1357,,0.9312,79.2307,,,,3.6947E+00,,1.0000E-12,,13.1296,13.1286,0.0196,282.025,94.805,93.540,10,,33.4176,5.888,256.92,1.049,0.346,,,,,
CalCOFI,2101RL,061,,2101_061d,31-Jan-2021 05:54:44,30-Jan-2021 21:54:44,34.14914,-121.15172,080.0 060.0,080.0,060.0,11.000,11.079,,13.1290,,13.1293,,13.1292,33.4125,,33.4183,33.4105,,33.4125,33.4154,5.6614,,5.9251,5.9728,5.5492,,5.8918,5.9459,5.9594,246.640,258.4430,214.2797,241.750,274.7199,213.2135,213.7466,0.1779,,1.2095,1.0210, ,, , ,25.1379,,25.1363,,0.9296,79.2630,,,,3.6947E+00,,1.0000E-12,,13.1275,13.1278,0.0224,281.946,94.823,92.943,,,,,,,,,,,,
CalCOFI,2101RL,061,,2101_061d,31-Jan-2021 05:54:47,30-Jan-2021 21:54:47,34.14915,-121.15173,080.0 060.0,080.0,060.0,12.000,12.087,,13.1290,,13.1292,,13.1291,33.4129,,33.4187,33.4108,,33.4128,33.4158,5.6519,,5.9152,5.9628,5.5624,,5.9058,5.9601,5.9615,246.222,258.0054,213.9514,242.324,274.2551,213.6716,213.8115,0.1781,,1.2112,1.0205, ,, , ,25.1382,,25.1366,,0.9263,79.3277,,,,3.6947E+00,,1.0000E-12,,13.1274,13.1276,0.0253,281.944,94.663,93.164,,,,,,,,,,,,
CalCOFI,2101RL,061,,2101_061d,31-Jan-2021 05:54:49,30-Jan-2021 21:54:49,34.14916,-121.15174,080.0 060.0,080.0,060.0,13.000,13.094,,13.1269,,13.1271,,13.1270,33.4129,,33.4187,33.4110,,33.4130,33.4159,5.6642,,5.9281,5.9758,5.5660,,5.9096,5.9639,5.9699,246.758,258.5665,214.3724,242.482,274.8512,213.7977,214.0851,0.1719,,1.1604,1.0328, ,, , ,25.1387,,25.1371,,0.9279,79.2966,,,,3.6947E+00,,1.0000E-12,,13.1252,13.1254,0.0281,281.926,94.865,93.220,,,,,,,,,,,,
CalCOFI,2101RL,061,,2101_061d,31-Jan-2021 05:54:57,30-Jan-2021 21:54:57,34.14916,-121.15176,080.0 060.0,080.0,060.0,14.000,14.101,,13.1265,,13.1253,,13.1259,33.4132,,33.4190,33.4113,,33.4133,33.4162,5.6536,,5.9170,5.9646,5.5623,,5.9057,5.9600,5.9623,246.296,258.0829,214.0095,242.320,274.3374,213.6684,213.8390,0.1891,,1.3013,0.9870, ,, , ,25.1390,,25.1378,,0.9257,79.3404,,,,3.6947E+00,,1.0000E-12,,13.1246,13.1234,0.0314,281.923,94.687,93.155,,,,,,,,,,,,
CalCOFI,2101RL,061,,2101_061d,31-Jan-2021 05:55:07,30-Jan-2021 21:55:07,34.14917,-121.15176,080.0 060.0,080.0,060.0,15.000,15.109,,13.1212,,13.1216,,13.1214,33.4131,,33.4189,33.4112,,33.4132,33.4161,5.6494,,5.9126,5.9602,5.5689,,5.9127,5.9671,5.9637,246.114,257.8923,213.8666,242.609,274.1350,213.8990,213.8828,0.1876,,1.2890,0.9925, ,, , ,25.1400,,25.1384,,0.9199,79.4561,,,,3.6947E+00,,1.0000E-12,,13.1192,13.1196,0.0353,281.858,94.607,93.259,,,,,,,,,,,,
CalCOFI,2101RL,061,,2101_061d,31-Jan-2021 05:55:11,30-Jan-2021 21:55:11,34.14918,-121.15178,080.0 060.0,080.0,060.0,16.000,16.116,,13.1194,,13.1196,,13.1195,33.4131,,33.4189,33.4112,,33.4132,33.4161,5.6481,,5.9112,5.9588,5.5509,,5.8936,5.9477,5.9533,246.058,257.8337,213.8226,241.824,274.0728,213.2726,213.5476,0.1837,,1.2571,1.0053, ,, , ,25.1404,,25.1389,,0.9194,79.4644,,,,3.6947E+00,,1.0000E-12,,13.1172,13.1174,0.0389,281.845,94.582,92.953,,,,,,,,,,,,
CalCOFI,2101RL,061,,2101_061d,31-Jan-2021 05:55:18,30-Jan-2021 21:55:18,34.14918,-121.15179,080.0 060.0,080.0,060.0,17.000,17.123,,13.1180,,13.1182,,13.1181,33.4132,,33.4190,33.4114,,33.4134,33.4162,5.6223,,5.8842,5.9316,5.5473,,5.8898,5.9439,5.9378,244.936,256.6592,212.9413,241.669,272.8251,213.1488,213.0451,0.1828,,1.2497,1.0080, ,, , ,25.1408,,25.1393,,0.9131,79.5905,,,,3.6947E+00,,1.0000E-12,,13.1157,13.1159,0.0426,281.834,94.148,92.891,17,,33.4170,, ,,,,,,,
CalCOFI,2101RL,061,,2101_061d,31-Jan-2021 05:55:21,30-Jan-2021 21:55:21,34.14918,-121.15180,080.0 060.0,080.0,060.0,18.000,18.130,,13.1187,,13.1190,,13.1189,33.4141,,33.4199,33.4122,,33.4142,33.4171,5.6135,,5.8750,5.9224,5.5400,,5.8820,5.9360,5.9292,244.549,256.2541,212.6373,241.349,272.3947,212.8935,212.7654,0.1729,,1.1686,1.0311, ,, , ,25.1414,,25.1399,,0.9030,79.7917,,,,3.6947E+00,,1.0000E-12,,13.1162,13.1165,0.0462,281.810,94.001,92.770,,,,,,,,,,,,
CalCOFI,2101RL,061,,2101_061d,31-Jan-2021 05:55:27,30-Jan-2021 21:55:27,34.14916,-121.15180,080.0 060.0,080.0,060.0,19.000,19.138,,13.1184,,13.1188,,13.1186,33.4139,,33.4197,33.4119,,33.4139,33.4168,5.6242,,5.8862,5.9336,5.5287,,5.8700,5.9239,5.9288,245.018,256.7450,213.0057,240.856,272.9163,212.5000,212.7529,0.1765,,1.1981,1.0241, ,, , ,25.1413,,25.1397,,0.9031,79.7899,,,,3.6947E+00,,1.0000E-12,,13.1158,13.1162,0.0496,281.841,94.181,92.580,,,,,,,,,,,,
CalCOFI,2101RL,061,,2101_061d,31-Jan-2021 05:55:30,30-Jan-2021 21:55:30,34.14916,-121.15182,080.0 060.0,080.0,060.0,20.000,20.145,,13.1169,,13.1171,,13.1170,33.4143,,33.4201,33.4124,,33.4144,33.4173,5.6036,,5.8646,5.9119,5.5280,,5.8693,5.9232,5.9176,244.117,255.8019,212.2979,240.825,271.9143,212.4753,212.3866,0.1712,,1.1546,1.0339, ,, , ,25.1419,,25.1405,,0.8947,79.9575,,,,3.6947E+00,,1.0000E-12,,13.1141,13.1144,0.0527,281.809,93.832,92.565,20,,33.4161,5.860,255.70,1.033,0.326,,,,,
CalCOFI,2101RL,061,,2101_061d,31-Jan-2021 05:55:33,30-Jan-2021 21:55:33,34.14916,-121.15182,080.0 060.0,080.0,060.0,21.000,21.152,,13.1149,,13.1150,,13.1150,33.4141,,33.4199,33.4121,,33.4141,33.4170,5.6183,,5.8800,5.9274,5.5336,,5.8752,5.9292,5.9283,244.759,256.4739,212.8022,241.068,272.6282,212.6692,212.7357,0.1694,,1.1399,1.0364, ,, , ,25.1422,,25.1406,,0.8911,80.0298,,,,3.6947E+00,,1.0000E-12,,13.1120,13.1122,0.0555,281.809,94.074,92.655,,,,,,,,,,,,
CalCOFI,2101RL,061,,2101_061d,31-Jan-2021 05:55:37,30-Jan-2021 21:55:37,34.14916,-121.15184,080.0 060.0,080.0,060.0,22.000,22.160,,13.1101,,13.1102,,13.1102,33.4135,,33.4193,33.4116,,33.4136,33.4165,5.6063,,5.8675,5.9148,5.5345,,5.8762,5.9301,5.9225,244.235,255.9254,212.3906,241.110,272.0456,212.7028,212.5467,0.1663,,1.1145,1.0398, ,, , ,25.1427,,25.1412,,0.8917,80.0182,,,,3.6947E+00,,1.0000E-12,,13.1071,13.1072,0.0584,281.789,93.863,92.661,,,,,,,,,,,,
CalCOFI,2101RL,061,,2101_061d,31-Jan-2021 05:55:40,30-Jan-2021 21:55:40,34.14916,-121.15184,080.0 060.0,080.0,060.0,23.000,23.167,,13.1055,,13.1058,,13.1057,33.4131,,33.4189,33.4112,,33.4132,33.4161,5.6009,,5.8618,5.9091,5.5242,,5.8653,5.9191,5.9141,243.999,255.6784,212.2052,240.660,271.7831,212.3436,212.2744,0.1701,,1.1456,1.0354, ,, , ,25.1434,,25.1418,,0.8920,80.0114,,,,3.6947E+00,,1.0000E-12,,13.1023,13.1027,0.0612,281.754,93.764,92.480,,,,,,,,,,,,
CalCOFI,2101RL,061,,2101_061d,31-Jan-2021 05:55:43,30-Jan-2021 21:55:43,34.14916,-121.15184,080.0 060.0,080.0,060.0,24.000,24.174,,13.1037,,13.1038,,13.1038,33.4130,,33.4188,33.4110,,33.4130,33.4159,5.6062,,5.8673,5.9147,5.5172,,5.8578,5.9116,5.9132,244.231,255.9212,212.3875,240.357,272.0411,212.1018,212.2447,0.1670,,1.1202,1.0391, ,, , ,25.1437,,25.1421,,0.8939,79.9726,,,,3.6947E+00,,1.0000E-12,,13.1004,13.1005,0.0640,281.751,93.849,92.360,,,,,,,,,,,,
CalCOFI,2101RL,061,,2101_061d,31-Jan-2021 05:55:46,30-Jan-2021 21:55:46,34.14916,-121.15185,080.0 060.0,080.0,060.0,25.000,25.181,,13.1039,,13.1041,,13.1040,33.4132,,33.4190,33.4114,,33.4134,33.4162,5.5975,,5.8582,5.9055,5.5056,,5.8455,5.8991,5.9023,243.851,255.5234,212.0890,239.849,271.6185,211.6964,211.8927,0.1551,,1.0227,1.0420, ,, , ,25.1438,,25.1424,,0.8892,80.0669,,,,3.6947E+00,,1.0000E-12,,13.1005,13.1007,0.0669,281.764,93.704,92.165,,,,,,,,,,,,
CalCOFI,2101RL,061,,2101_061d,31-Jan-2021 05:55:47,30-Jan-2021 21:55:47,34.14916,-121.15186,080.0 060.0,080.0,060.0,26.000,26.189,,13.1054,,13.1055,,13.1055,33.4142,,33.4200,33.4124,,33.4144,33.4172,5.5949,,5.8555,5.9027,5.5038,,5.8436,5.8972,5.9000,243.741,255.4083,212.0026,239.772,271.4962,211.6350,211.8188,0.1532,,1.0071,1.0408, ,, , ,25.1443,,25.1429,,0.8813,80.2268,,,,3.6947E+00,,1.0000E-12,,13.1019,13.1020,0.0697,281.744,93.665,92.139,,,,,,,,,,,,
CalCOFI,2101RL,061,,2101_061d,31-Jan-2021 05:55:52,30-Jan-2021 21:55:52,34.14916,-121.15187,080.0 060.0,080.0,060.0,27.000,27.196,,13.1048,,13.1050,,13.1049,33.4143,,33.4201,33.4123,,33.4143,33.4172,5.5954,,5.8560,5.9033,5.5032,,5.8429,5.8966,5.9000,243.761,255.4292,212.0183,239.744,271.5185,211.6126,211.8155,0.1543,,1.0162,1.0416, ,, , ,25.1446,,25.1429,,0.8789,80.2742,,,,3.6947E+00,,1.0000E-12,,13.1012,13.1013,0.0726,281.749,93.672,92.127,,,,,,,,,,,,
CalCOFI,2101RL,061,,2101_061d,31-Jan-2021 05:55:54,30-Jan-2021 21:55:54,34.14916,-121.15188,080.0 060.0,080.0,060.0,28.000,28.204,,13.1025,,13.1025,,13.1025,33.4138,,33.4196,33.4119,,33.4139,33.4168,5.6050,,5.8661,5.9134,5.5037,,5.8435,5.8971,5.9053,244.177,255.8647,212.3451,239.765,271.9811,211.6294,211.9873,0.1498,,0.9793,1.0376, ,, , ,25.1446,,25.1432,,0.8815,80.2214,,,,3.6947E+00,,1.0000E-12,,13.0987,13.0986,0.0754,281.772,93.827,92.130,,,,,,,,,,,,
CalCOFI,2101RL,061,,2101_061d,31-Jan-2021 05:55:56,30-Jan-2021 21:55:56,34.14916,-121.15188,080.0 060.0,080.0,060.0,29.000,29.211,,13.1015,,13.1017,,13.1016,33.4138,,33.4196,33.4120,,33.4140,33.4168,5.5992,,5.8600,5.9073,5.5150,,5.8555,5.9092,5.9083,243.925,255.6009,212.1471,240.259,271.7008,212.0236,212.0854,0.1543,,1.0162,1.0416, ,, , ,25.1449,,25.1434,,0.8814,80.2248,,,,3.6947E+00,,1.0000E-12,,13.0976,13.0977,0.0783,281.775,93.728,92.318,,,,,,,,,,,,
CalCOFI,2101RL,061,,2101_061d,31-Jan-2021 05:55:57,30-Jan-2021 21:55:57,34.14916,-121.15188,080.0 060.0,080.0,060.0,30.000,30.218,,13.0989,,13.0992,,13.0991,33.4135,,33.4193,33.4116,,33.4136,33.4165,5.5938,,5.8544,5.9016,5.5048,,5.8446,5.8983,5.9000,243.690,255.3549,211.9625,239.816,271.4395,211.6701,211.8163,0.1593,,1.0571,1.0430, ,, , ,25.1452,,25.1436,,0.8820,80.2119,,,,3.6947E+00,,1.0000E-12,,13.0948,13.0952,0.0811,281.772,93.633,92.143,,,,,,,,,,,,
CalCOFI,2101RL,061,,2101_061d,31-Jan-2021 05:56:00,30-Jan-2021 21:56:00,34.14914,-121.15190,080.0 060.0,080.0,060.0,31.000,31.226,,13.0978,,13.0978,,13.0978,33.4136,,33.4194,33.4116,,33.4136,33.4165,5.5972,,5.8579,5.9052,5.4988,,5.8383,5.8918,5.8985,243.840,255.5119,212.0804,239.553,271.6063,211.4602,211.7703,0.1534,,1.0088,1.0410, ,, , ,25.1455,,25.1439,,0.8788,80.2758,,,,3.6947E+00,,1.0000E-12,,13.0936,13.0936,0.0839,281.767,93.688,92.040,,,,,,,,,,,,
CalCOFI,2101RL,061,,2101_061d,31-Jan-2021 05:56:03,30-Jan-2021 21:56:03,34.14916,-121.15190,080.0 060.0,080.0,060.0,32.000,32.233,,13.0939,,13.0939,,13.0939,33.4130,,33.4188,33.4110,,33.4130,33.4159,5.5823,,5.8423,5.8895,5.4994,,5.8389,5.8925,5.8910,243.189,254.8304,211.5690,239.581,270.8824,211.4826,211.5258,0.1602,,1.0645,1.0429, ,, , ,25.1458,,25.1442,,0.8786,80.2794,,,,3.6947E+00,,1.0000E-12,,13.0896,13.0895,0.0868,281.763,93.430,92.043,,,,,,,,,,,,
CalCOFI,2101RL,061,,2101_061d,31-Jan-2021 05:56:05,30-Jan-2021 21:56:05,34.14915,-121.15190,080.0 060.0,080.0,060.0,33.000,33.240,,13.0880,,13.0882,,13.0881,33.4125,,33.4183,33.4106,,33.4126,33.4155,5.5852,,5.8454,5.8925,5.4848,,5.8234,5.8768,5.8847,243.319,254.9665,211.6711,238.945,271.0269,210.9750,211.3231,0.1544,,1.0170,1.0416, ,, , ,25.1467,,25.1451,,0.8801,80.2495,,,,3.6947E+00,,1.0000E-12,,13.0835,13.0837,0.0896,281.712,93.468,91.787,,,,,,,,,,,,
CalCOFI,2101RL,061,,2101_061d,31-Jan-2021 05:56:07,30-Jan-2021 21:56:07,34.14914,-121.15190,080.0 060.0,080.0,060.0,34.000,34.248,,13.0907,,13.0910,,13.0909,33.4135,,33.4193,33.4117,,33.4137,33.4165,5.5723,,5.8319,5.8789,5.4885,,5.8273,5.8808,5.8799,242.755,254.3761,211.2281,239.105,270.3998,211.1027,211.1654,0.1466,,0.9531,1.0333, ,, , ,25.1469,,25.1455,,0.8750,80.3523,,,,3.6947E+00,,1.0000E-12,,13.0860,13.0863,0.0924,281.711,93.258,91.855,,,,,,,,,,,,
CalCOFI,2101RL,061,,2101_061d,31-Jan-2021 05:56:08,30-Jan-2021 21:56:08,34.14914,-121.15190,080.0 060.0,080.0,060.0,35.000,35.255,,13.0893,,13.0893,,13.0893,33.4141,,33.4199,33.4122,,33.4142,33.4171,5.5704,,5.8299,5.8769,5.4781,,5.8163,5.8696,5.8733,242.673,254.2903,211.1637,238.652,270.3086,210.7412,210.9525,0.1371,,0.8752,1.0129, ,, , ,25.1477,,25.1462,,0.8701,80.4499,,,,3.6947E+00,,1.0000E-12,,13.0845,13.0845,0.0953,281.670,93.224,91.678,,,,,,,,,,,,
CalCOFI,2101RL,061,,2101_061d,31-Jan-2021 05:56:11,30-Jan-2021 21:56:11,34.14914,-121.15190,080.0 060.0,080.0,060.0,36.000,36.262,,13.0876,,13.0881,,13.0879,33.4150,,33.4208,33.4130,,33.4150,33.4179,5.5615,,5.8206,5.8675,5.4698,,5.8075,5.8607,5.8641,242.283,253.8820,210.8573,238.290,269.8749,210.4523,210.6548,0.1387,,0.8883,1.0172, ,, , ,25.1487,,25.1471,,0.8686,80.4818,,,,3.6947E+00,,1.0000E-12,,13.0827,13.0832,0.0981,281.596,93.072,91.537,,,,,,,,,,,,
CalCOFI,2101RL,061,,2101_061d,31-Jan-2021 05:56:14,30-Jan-2021 21:56:14,34.14914,-121.15190,080.0 060.0,080.0,060.0,37.000,37.270,,13.0831,,13.0839,,13.0835,33.4169,,33.4227,33.4147,,33.4167,33.4197,5.5208,,5.7780,5.8247,5.4289,,5.7640,5.8168,5.8208,240.509,252.0250,209.4639,236.506,267.9022,209.0286,209.2463,0.1473,,0.9588,1.0344, ,, , ,25.1511,,25.1492,,0.8621,80.6126,,,,3.6947E+00,,1.0000E-12,,13.0780,13.0789,0.1010,281.395,92.382,90.845,,,,,,,,,,,,
CalCOFI,2101RL,061,,2101_061d,31-Jan-2021 05:56:15,30-Jan-2021 21:56:15,34.14914,-121.15191,080.0 060.0,080.0,060.0,38.000,38.277,,13.0768,,13.0769,,13.0769,33.4214,,33.4272,33.4196,,33.4216,33.4244,5.5290,,5.7866,5.8333,5.4277,,5.7628,5.8156,5.8245,240.868,252.4008,209.7459,236.451,268.3014,208.9847,209.3653,0.1173,,0.7130,0.9344, ,, , ,25.1559,,25.1545,,0.8461,80.9346,,,,3.6947E+00,,1.0000E-12,,13.0717,13.0718,0.1039,280.969,92.512,90.815,,,,,,,,,,,,
CalCOFI,2101RL,061,,2101_061d,31-Jan-2021 05:56:16,30-Jan-2021 21:56:16,34.14914,-121.15192,080.0 060.0,080.0,060.0,39.000,39.284,,13.0710,,13.0712,,13.0711,33.4224,,33.4282,33.4205,,33.4225,33.4254,5.5204,,5.7776,5.8242,5.4174,,5.7518,5.8045,5.8144,240.491,252.0062,209.4497,236.005,267.8822,208.6288,209.0393,0.1101,,0.6540,0.8938, ,, , ,25.1578,,25.1563,,0.8448,80.9611,,,,3.6947E+00,,1.0000E-12,,13.0657,13.0659,0.1067,280.811,92.357,90.633,,,,,,,,,,,,
CalCOFI,2101RL,061,,2101_061d,31-Jan-2021 05:56:18,30-Jan-2021 21:56:18,34.14914,-121.15192,080.0 060.0,080.0,060.0,40.000,40.292,,13.0662,,13.0663,,13.0663,33.4243,,33.4301,33.4225,,33.4245,33.4273,5.5019,,5.7582,5.8047,5.4121,,5.7462,5.7988,5.8018,239.686,251.1635,208.8174,235.771,266.9870,208.4420,208.6297,0.1137,,0.6835,0.9149, ,, , ,25.1603,,25.1588,,0.8420,81.0191,,,,3.6947E+00,,1.0000E-12,,13.0608,13.0608,0.1095,280.606,92.040,90.535,,,,,,,,,,,,
CalCOFI,2101RL,061,,2101_061d,31-Jan-2021 05:56:20,30-Jan-2021 21:56:20,34.14914,-121.15190,080.0 060.0,080.0,060.0,41.000,41.299,,13.0577,,13.0574,,13.0576,33.4280,,33.4338,33.4262,,33.4282,33.4310,5.4859,,5.7414,5.7879,5.3912,,5.7240,5.7764,5.7822,238.987,250.4318,208.2684,234.862,266.2097,207.7166,207.9925,0.1109,,0.6605,0.8987, ,, , ,25.1648,,25.1635,,0.8375,81.1086,,,,3.6947E+00,,1.0000E-12,,13.0521,13.0518,0.1123,280.197,91.758,90.172,,,,,,,,,,,,
CalCOFI,2101RL,061,,2101_061d,31-Jan-2021 05:56:23,30-Jan-2021 21:56:23,34.14914,-121.15192,080.0 060.0,080.0,060.0,42.000,42.307,,13.0455,,13.0450,,13.0453,33.4322,,33.4380,33.4307,,33.4327,33.4354,5.4469,,5.7006,5.7468,5.3692,,5.7006,5.7528,5.7498,237.287,248.6522,206.9330,233.901,264.3193,206.9497,206.9414,0.1037,,0.6015,0.8523, ,, , ,25.1706,,25.1695,,0.8350,81.1599,,,,3.6947E+00,,1.0000E-12,,13.0398,13.0392,0.1152,279.676,91.085,89.783,,,,,,,,,,,,
CalCOFI,2101RL,061,,2101_061d,31-Jan-2021 05:56:25,30-Jan-2021 21:56:25,34.14914,-121.15192,080.0 060.0,080.0,060.0,43.000,43.314,,13.0268,,13.0266,,13.0267,33.4381,,33.4439,33.4365,,33.4385,33.4412,5.4330,,5.6861,5.7321,5.3578,,5.6885,5.7406,5.7364,236.676,248.0126,206.4531,233.402,263.6398,206.5515,206.5023,0.1006,,0.5761,0.8304, ,, , ,25.1789,,25.1776,,0.8288,81.2863,,,,3.6947E+00,,1.0000E-12,,13.0210,13.0208,0.1180,278.914,90.820,89.562,,,,,,,,,,,,
CalCOFI,2101RL,061,,2101_061d,31-Jan-2021 05:56:26,30-Jan-2021 21:56:26,34.14914,-121.15192,080.0 060.0,080.0,060.0,44.000,44.321,,13.0161,,13.0162,,13.0162,33.4412,,33.4470,33.4394,,33.4414,33.4442,5.4189,,5.6713,5.7173,5.3432,,5.6730,5.7249,5.7211,236.064,247.3720,205.9724,232.767,262.9593,206.0447,206.0086,0.0978,,0.5532,0.8095, ,, , ,25.1834,,25.1820,,0.8280,81.3013,,,,3.6947E+00,,1.0000E-12,,13.0101,13.0102,0.1208,278.510,90.567,89.301,,,,,,,,,,,,
CalCOFI,2101RL,061,,2101_061d,31-Jan-2021 05:56:27,30-Jan-2021 21:56:27,34.14914,-121.15192,080.0 060.0,080.0,060.0,45.000,45.329,,13.0045,,13.0043,,13.0044,33.4443,,33.4501,33.4426,,33.4446,33.4474,5.4220,,5.6746,5.7205,5.3258,,5.6545,5.7062,5.7134,236.197,247.5112,206.0768,232.006,263.1072,205.4374,205.7571,0.0969,,0.5458,0.8026, ,, , ,25.1881,,25.1869,,0.8230,81.4033,,,,3.6947E+00,,1.0000E-12,,12.9983,12.9982,0.1236,278.086,90.598,88.989,,,,,,,,,,,,
CalCOFI,2101RL,061,,2101_061d,31-Jan-2021 05:56:30,30-Jan-2021 21:56:30,34.14916,-121.15192,080.0 060.0,080.0,060.0,46.000,46.336,,12.9888,,12.9869,,12.9879,33.4490,,33.4548,33.4473,,33.4493,33.4521,5.3797,,5.6303,5.6760,5.2916,,5.6182,5.6695,5.6728,234.352,245.5799,204.6276,230.514,261.0555,204.2467,204.4372,0.0931,,0.5147,0.7723, ,, , ,25.1949,,25.1940,,0.8205,81.4543,,,,3.6947E+00,,1.0000E-12,,12.9825,12.9806,0.1264,277.470,89.865,88.389,,,,,,,,,,,,
CalCOFI,2101RL,061,,2101_061d,31-Jan-2021 05:56:32,30-Jan-2021 21:56:32,34.14915,-121.15193,080.0 060.0,080.0,060.0,47.000,47.344,,12.9490,,12.9478,,12.9484,33.4575,,33.4633,33.4563,,33.4583,33.4608,5.3352,,5.5837,5.6291,5.2545,,5.5788,5.6297,5.6294,232.411,243.5480,203.1030,228.894,258.8971,202.9539,203.0285,0.0879,,0.4721,0.7280, ,, , ,25.2094,,25.2087,,0.8153,81.5607,,,,3.6947E+00,,1.0000E-12,,12.9426,12.9414,0.1292,276.115,89.053,87.703,,,,,,,,,,,,
CalCOFI,2101RL,061,,2101_061d,31-Jan-2021 05:56:34,30-Jan-2021 21:56:34,34.14914,-121.15194,080.0 060.0,080.0,060.0,48.000,48.351,,12.9081,,12.9080,,12.9081,33.4746,,33.4804,33.4731,,33.4751,33.4778,5.3257,,5.5738,5.6190,5.2475,,5.5714,5.6222,5.6206,231.994,243.1115,202.7754,228.587,258.4334,202.7089,202.7422,0.0816,,0.4204,0.6698, ,, , ,25.2308,,25.2296,,0.8129,81.6100,,,,3.6947E+00,,1.0000E-12,,12.9016,12.9016,0.1319,274.105,88.830,87.524,,,,,,,,,,,,
CalCOFI,2101RL,061,,2101_061d,31-Jan-2021 05:56:36,30-Jan-2021 21:56:36,34.14914,-121.15194,080.0 060.0,080.0,060.0,49.000,49.359,,12.8988,,12.8990,,12.8989,33.4839,,33.4897,33.4820,,33.4840,33.4869,5.3285,,5.5767,5.6220,5.2362,,5.5594,5.6101,5.6161,232.112,243.2350,202.8681,228.091,258.5646,202.3131,202.5906,0.0802,,0.4090,0.6562, ,, , ,25.2398,,25.2383,,0.8105,81.6580,,,,3.6947E+00,,1.0000E-12,,12.8921,12.8924,0.1347,273.276,88.863,87.323,,,,,,,,,,,,
CalCOFI,2101RL,061,,2101_061d,31-Jan-2021 05:56:37,30-Jan-2021 21:56:37,34.14914,-121.15194,080.0 060.0,080.0,060.0,50.000,50.366,,12.8932,,12.8935,,12.8934,33.4853,,33.4911,33.4834,,33.4854,33.4883,5.3228,,5.5707,5.6160,5.2315,,5.5544,5.6050,5.6105,231.862,242.9733,202.6717,227.887,258.2866,202.1503,202.4110,0.0761,,0.3754,0.6149, ,, , ,25.2420,,25.2405,,0.8080,81.7096,,,,3.6947E+00,,1.0000E-12,,12.8865,12.8868,0.1374,273.088,88.759,87.237,,,,,,,,,,,,
CalCOFI,2101RL,061,,2101_061d,31-Jan-2021 05:56:39,30-Jan-2021 21:56:39,34.14914,-121.15196,080.0 060.0,080.0,060.0,51.000,51.374,,12.8915,,12.8917,,12.8916,33.4854,,33.4912,33.4836,,33.4856,33.4884,5.3151,,5.5627,5.6079,5.2377,,5.5610,5.6117,5.6098,231.527,242.6227,202.4086,228.157,257.9141,202.3658,202.3872,0.0751,,0.3672,0.6045, ,, , ,25.2425,,25.2410,,0.8086,81.6975,,,,3.6947E+00,,1.0000E-12,,12.8846,12.8848,0.1402,273.073,88.627,87.337,51,,33.4650,5.652,246.63,0.610,0.274,,,,,
CalCOFI,2101RL,061,,2101_061d,31-Jan-2021 05:56:41,30-Jan-2021 21:56:41,34.14914,-121.15196,080.0 060.0,080.0,060.0,52.000,52.381,,12.8855,,12.8854,,12.8855,33.4851,,33.4909,33.4834,,33.4854,33.4882,5.2668,,5.5121,5.5570,5.1916,,5.5120,5.5622,5.5596,229.424,240.4212,200.7567,226.150,255.5755,200.7641,200.7604,0.0737,,0.3557,0.5898, ,, , ,25.2434,,25.2422,,0.8078,81.7127,,,,3.6947E+00,,1.0000E-12,,12.8784,12.8783,0.1429,273.005,87.812,86.557,,,,,,,,,,,,
CalCOFI,2101RL,061,,2101_061d,31-Jan-2021 05:56:43,30-Jan-2021 21:56:43,34.14914,-121.15196,080.0 060.0,080.0,060.0,53.000,53.388,,12.8285,,12.8267,,12.8276,33.4857,,33.4915,33.4834,,33.4854,33.4885,5.2231,,5.4664,5.5109,5.1453,,5.4628,5.5125,5.5117,227.519,238.4271,199.2603,224.130,253.4571,199.1521,199.2062,0.0717,,0.3393,0.5683, ,, , ,25.2551,,25.2537,,0.8052,81.7662,,,,3.6947E+00,,1.0000E-12,,12.8214,12.8195,0.1457,271.915,86.981,85.681,,,,,,,,,,,,